Location: Poughquag
(41.6090°N, 73.6820°W)
Time: 04:35:06
(UTC-04:00)

A-11 Canister half - Pass Details

Date: 04 June 2020
Orbit: 1514 x 1686 km, 47.2° (Epoch: 06 July)

Event Time Altitude Azimuth Distance (km) Brightness Sun altitude
Rises 20:43:02 0° 292° (WNW) 4,665 13.6 -3.6°
Reaches altitude 10° 20:46:55 10° 278° (W) 3,673 12.2 -4.2°
Maximum altitude 20:53:25 22° 232° (SW) 2,838 10.6 -5.2°
Drops below altitude 10° 20:59:59 10° 186° (S) 3,685 10.7 -6.2°
Sets 21:03:56 0° 172° (S) 4,684 11.1 -6.8°
